Location: Gajan
(43.0218°N, 1.1244°E)
Time: 03:19:50
(UTC+00:00)

NOSS 3-1 (A) - Pass Details

Date: 22 April 2021
Orbit: 733 x 1479 km, 63.4° (Epoch: 01 May)

Event Time Altitude Azimuth Distance (km) Brightness Sun altitude
Rises 22:34:18 0° 323° (NW) 3,978 7.7 -31.5°
Reaches altitude 10° 22:36:49 10° 323° (NW) 3,113 6.9 -31.7°
Maximum altitude 22:44:30 85° 236° (WSW) 1,341 4.0 -32.2°
Enters shadow 22:45:03 79° 176° (S) 1,365 4.0 -32.3°
